Home   Weather   Shanghai   Past weeks
Flag for China

Past Weather in Shanghai, Shanghai Municipality, China — Yesterday and Last 2 Weeks

Now
82 °F

Sunny.


Feels Like: 80 °F
Forecast: 89 / 64 °F
Wind: 3 mph from North

Location: Shanghai Hongqiao Airport

Current Time: May 21, 2019 at 3:15:05 pm

Latest Report: May 21, 2019 at 2:30 pm


Visibility: 10 mi

Pressure: 29.83 "Hg

Humidity: 21%

Dew Point: 39 °F

Location of ShanghaiLocation

Past Weather in Shanghai — Graph

°F

Shanghai Temperature Yesterday

Maximum temperature yesterday: 79 °F (at 12:00 pm)
Minimum temperature yesterday: 66 °F (at 8:00 pm)
Average temperature yesterday: 72 °F

High & Low Weather Summary for the Past Weeks

 TemperatureHumidityPressure
High86 °F (May 11, 1:00 pm)94% (May 13, 3:00 pm)30.15 "Hg (May 13, 3:00 pm)
Low52 °F (May 7, 2:30 am)20% (May 21, 12:30 pm)29.59 "Hg (May 17, 3:30 pm)
Average69 °F64%29.85 "Hg
* Reported May 6 2:00 pm — May 21 2:00 pm, Shanghai. Weather by CustomWeather, © 2019

Note: Actual official high and low records may vary slightly from our data, if they occured in-between our weather recording intervals... More about our weather records

Advertising

Shanghai Weather History for the Previous 24 Hours

Scroll right to see more
 ConditionsComfort  
Time TempWeatherWind HumidityBarometerVisibility
2:00 pm
Tue, May 21
82 °FSunny.8 mph20%29.83 "Hg10 mi
1:30 pm81 °FSunny.3 mph21%29.83 "Hg10 mi
1:00 pm81 °FSunny.6 mph23%29.86 "Hg10 mi
12:30 pm81 °FPassing clouds.6 mph20%29.86 "HgN/A
12:00 pm79 °FSunny.6 mph23%29.86 "Hg10 mi
11:30 am79 °FPassing clouds.6 mph26%29.89 "HgN/A
11:00 am77 °FSunny.3 mph24%29.89 "Hg10 mi
10:30 am77 °FSunny.6 mph28%29.89 "Hg10 mi
10:00 am75 °FSunny.6 mph29%29.92 "Hg10 mi
9:30 am73 °FPassing clouds.6 mph38%29.92 "HgN/A
9:00 am72 °FSunny.6 mph38%29.92 "Hg10 mi
8:30 am72 °FPassing clouds.6 mph41%29.92 "HgN/A
8:00 am70 °FPassing clouds.6 mph40%29.92 "HgN/A
7:30 am70 °FPassing clouds.6 mph40%29.92 "HgN/A
7:00 am68 °FPassing clouds.6 mph43%29.92 "HgN/A
6:30 am64 °FSunny.3 mph49%29.92 "Hg10 mi
6:00 am64 °FSunny.3 mph49%29.92 "Hg10 mi
5:30 am63 °FSunny.3 mph52%29.92 "Hg10 mi
5:00 am63 °FSunny.3 mph52%29.92 "Hg10 mi
4:30 am63 °FClear.3 mph52%29.92 "Hg10 mi
4:00 am63 °FClear.3 mph52%29.92 "Hg10 mi
3:30 am64 °FClear.3 mph46%29.92 "Hg10 mi
3:00 am63 °FClear.1 mph49%29.92 "Hg10 mi
2:30 am63 °FClear.3 mph49%29.92 "Hg10 mi
2:00 am64 °FClear.6 mph43%29.92 "Hg10 mi
1:30 am64 °FClear.3 mph43%29.92 "Hg10 mi
1:00 am64 °FClear.1 mph40%29.92 "Hg10 mi
12:30 am66 °FClear.3 mph35%29.92 "Hg10 mi
12:00 am64 °FClear.1 mph40%29.92 "Hg10 mi
11:30 pm
Mon, May 20
68 °FClear.1 mph30%29.95 "Hg10 mi
11:00 pm66 °FClear.1 mph32%29.95 "Hg10 mi
10:30 pm66 °FClear.1 mph35%29.95 "Hg10 mi
10:00 pm68 °FClear.1 mph33%29.95 "Hg10 mi
9:30 pm66 °FPassing clouds.3 mph35%29.92 "HgN/A
9:00 pm66 °FPassing clouds.6 mph35%29.92 "HgN/A
8:30 pm68 °FPassing clouds.6 mph35%29.92 "HgN/A
8:00 pm66 °FClear.6 mph37%29.92 "Hg10 mi
7:30 pm68 °FPassing clouds.6 mph35%29.92 "HgN/A
7:00 pm68 °FPassing clouds.8 mph35%29.89 "HgN/A
6:30 pm70 °FSunny.13 mph33%29.89 "Hg10 mi
6:00 pm73 °FPassing clouds.8 mph29%29.86 "HgN/A
5:30 pm75 °FSunny.10 mph25%29.86 "Hg10 mi
5:00 pm75 °FSunny.10 mph25%29.86 "Hg10 mi
4:30 pm77 °FPassing clouds.6 mph24%29.86 "HgN/A
4:00 pm77 °FPassing clouds.8 mph26%29.86 "HgN/A
3:30 pm77 °FPassing clouds.8 mph26%29.86 "HgN/A
3:00 pm77 °FPassing clouds.8 mph24%29.89 "HgN/A
Weather by CustomWeather, © 2019

See weather overview